Flag for Poland Weather past 2 weeks in Ruda Śląska, Poland

Now
70 °F

Clear.


Feels Like: 70 °F
Forecast: 54 / 68 °F
Wind: 3 mph from Northwest

Location: Katowice Airport

Current Time: Jul 8, 2015 at 4:48:42 AM

Latest Report: Jul 8, 2015 at 4:30 AM


Visibility: 10 mi

Pressure: 29.74 "Hg

Humidity: 73%

Dew point: 61 °F

Location of Ruda ŚląskaLocation

Historic Weather in Ruda Śląska — Graph

°F

Ruda Śląska temperature yesterday

Maximum temperature yesterday: 88 °F (at 4:30 PM)
Minimum temperature yesterday: 54 °F (at 4:00 AM)
Average temperature yesterday: 74 °F

Past Weeks' High & Low Weather Summary

 TemperatureHumidityPressure
High91 °F (Jul 5, 2:30 PM)100% (Jun 23, 6:30 AM)30.39 "Hg (Jun 23, 6:30 AM)
Low43 °F (Jun 25, 3:30 AM)27% (Jul 5, 5:00 PM)29.71 "Hg (Jul 8, 2:00 AM)
Average66 °F67%30.11 "Hg
* Reported Jun 23 3:00 AM — Jul 8 3:30 AM, Ruda Śląska, Weather by CustomWeather, © 2015

Note: Actual official high and low records may vary slightly from our data, if they occured in-between our weather recording intervals... More about our weather records

Advertising

Ruda Śląska weather history for previous 24 hours

 ConditionsComfort  
Time TempWeatherWind HumidityBarometerVisibility
3:30 AM
Wed, Jul 8
77 °FPassing clouds.5 mph57%29.71 "HgN/A
3:00 AM75 °FClear.6 mph57%29.71 "Hg10 mi
2:30 AM73 °FClear.6 mph57%29.71 "Hg10 mi
2:00 AM73 °FClear.6 mph57%29.71 "Hg10 mi
1:30 AM73 °FClear.8 mph57%29.74 "Hg10 mi
1:00 AM75 °FClear.9 mph54%29.74 "Hg10 mi
12:30 AM75 °FClear.10 mph54%29.74 "Hg10 mi
11:30 PM
Tue, Jul 7
77 °FClear.9 mph51%29.77 "Hg10 mi
11:00 PM77 °FPassing clouds.9 mph54%29.80 "HgN/A
10:30 PM79 °FPassing clouds.9 mph51%29.80 "HgN/A
10:00 PM79 °FPassing clouds.10 mph48%29.83 "HgN/A
9:30 PM79 °FSunny.8 mph48%29.83 "Hg10 mi
9:00 PM81 °FSunny.7 mph42%29.83 "Hg10 mi
8:30 PM82 °FPassing clouds.7 mph40%29.86 "HgN/A
8:00 PM86 °FPassing clouds.5 mph33%29.86 "HgN/A
7:30 PM86 °FSunny.5 mph33%29.89 "Hg10 mi
7:00 PM88 °FPassing clouds.3 mph31%29.89 "HgN/A
6:30 PM88 °FPassing clouds.3 mph31%29.89 "HgN/A
6:00 PM88 °FPassing clouds.7 mph31%29.89 "HgN/A
5:30 PM88 °FPassing clouds.6 mph31%29.92 "HgN/A
5:00 PM88 °FSunny.5 mph29%29.92 "Hg10 mi
4:30 PM88 °FPassing clouds.8 mph31%29.95 "HgN/A
4:00 PM86 °FSunny.12 mph31%29.95 "Hg10 mi
3:30 PM86 °FPassing clouds.10 mph31%29.95 "HgN/A
3:00 PM84 °FPassing clouds.9 mph31%29.98 "HgN/A
2:30 PM84 °FPassing clouds.10 mph33%29.98 "HgN/A
2:00 PM84 °FSunny.7 mph33%30.01 "Hg10 mi
1:30 PM84 °FPassing clouds.9 mph31%30.01 "HgN/A
1:00 PM82 °FSunny.6 mph35%30.01 "Hg10 mi
12:30 PM82 °FPassing clouds.7 mph35%30.04 "HgN/A
12:00 PM81 °FSunny.5 mph34%30.04 "Hg10 mi
11:30 AM81 °FPassing clouds.6 mph39%30.04 "HgN/A
11:00 AM79 °FSunny.6 mph42%30.07 "Hg10 mi
10:30 AM77 °FPassing clouds.6 mph44%30.07 "HgN/A
10:00 AM77 °FPassing clouds.5 mph47%30.07 "HgN/A
9:30 AM75 °FSunny.5 mph54%30.07 "Hg10 mi
9:00 AM73 °FPassing clouds.7 mph53%30.07 "HgN/A
8:30 AM72 °FPassing clouds.8 mph61%30.09 "HgN/A
8:00 AM70 °FPassing clouds.7 mph60%30.09 "HgN/A
7:30 AM70 °FPassing clouds.6 mph60%30.09 "HgN/A
7:00 AM64 °FSunny.2 mph78%30.09 "Hg10 mi
6:30 AM59 °FSunny.2 mph88%30.09 "Hg10 mi
6:00 AM55 °FSunny.2 mph88%30.09 "Hg10 mi
5:30 AM54 °FFog.3 mph94%30.09 "HgN/A
5:00 AM54 °FFog.3 mph94%30.09 "HgN/A
4:30 AM54 °FFog.2 mph94%30.09 "HgN/A
4:00 AM54 °FFog.1 mph94%30.09 "HgN/A
Weather by CustomWeather, © 2015

See weather overviewHow to use our weather pages